This demonstration page uses our WeatherBlox Daily Observations layout. Learn more.

Left ArrowRight Arrow

39.08367, -84.50855

Hourly Observations for March 2, 2015

Temp ( °F °C ) Dew Point ( °F °C ) Humidity (%) Winds ( mph kmh ) Pressure ( in mb ) Visibility ( mi km ) Precip ( " mm )
12:18 am 00:18 Mostly Clear 32 undefined 27 -3 80 80 WNW 9 15 30.39 1029 10 16.0934 N/A
12:53 am 00:53 Partly Cloudy 32 undefined 26 -3.3 79 79 WNW 8 13 30.38 1029 10 16.0934 N/A
1:03 am 01:03 Mostly Cloudy 30 -1 25 -4 80 80 NW 8 13 30.39 1029 10 16.0934 N/A
1:53 am 01:53 Cloudy 30 -1.1 23 -5 75 75 NW 9 15 30.4 1029 10 16.0934 N/A
2:53 am 02:53 Mostly Cloudy 27 -2.8 20 -6.7 75 75 NNW 9 15 30.42 1030 10 16.0934 N/A
3:06 am 03:06 Partly Cloudy 27 -3 19 -7 74 74 NNW 13 20 30.45 1031 10 16.0934 N/A
3:53 am 03:53 Clear 25 -3.9 18 -7.8 75 75 NW 9 15 30.45 1031 10 16.0934 N/A
4:53 am 04:53 Clear 24 -4.4 17 -8.3 75 75 WNW 5 7 30.47 1032 10 16.0934 N/A
5:53 am 05:53 Clear 24 -4.4 17 -8.3 75 75 NW 6 9 30.5 1033 10 16.0934 N/A
6:53 am 06:53 Clear 23 -5 16 -8.9 74 74 NNW 6 9 30.53 1034 10 16.0934 N/A
7:53 am 07:53 Sunny 22 -5.6 15 -9.4 75 75 N 6 9 30.54 1034 9 14.48406 N/A
8:53 am 08:53 Sunny 24 -4.4 15 -9.4 68 68 N 3 6 30.56 1035 8 12.87472 N/A
9:53 am 09:53 Sunny 26 -3.3 16 -8.9 66 66 NE 8 13 30.58 1035 9 14.48406 N/A
10:53 am 10:53 Sunny 29 -1.7 15 -9.4 56 56 N N/A 30.58 1036 10 16.0934 N/A
11:53 am 11:53 Sunny 28 -2.2 15 -9.4 58 58 N N/A 30.58 1036 10 16.0934 N/A
12:53 pm 12:53 Sunny 32 undefined 15 -9.4 50 50 NE 3 6 30.56 1035 10 16.0934 N/A
1:53 pm 13:53 Sunny 32 undefined 14 -10 47 47 ENE 5 7 30.51 1033 10 16.0934 N/A
2:53 pm 14:53 Sunny 33 0.6 14 -10 45 45 N N/A 30.5 1033 10 16.0934 N/A
3:53 pm 15:53 Sunny 33 0.6 16 -8.9 49 49 NE 8 13 30.48 1032 10 16.0934 N/A
4:53 pm 16:53 Sunny 34 1.1 14 -10 44 44 VRB 3 6 30.47 1032 10 16.0934 N/A
5:53 pm 17:53 Sunny 33 0.6 15 -9.4 47 47 NNE 3 6 30.47 1032 10 16.0934 N/A
6:53 pm 18:53 Clear 30 -1.1 16 -8.9 56 56 ENE 3 6 30.48 1032 10 16.0934 N/A
7:53 pm 19:53 Clear 28 -2.2 16 -8.9 60 60 ENE 5 7 30.48 1032 10 16.0934 N/A
8:53 pm 20:53 Mostly Clear 28 -2.2 16 -8.9 60 60 NNE 3 6 30.45 1031 10 16.0934 N/A
9:53 pm 21:53 Clear 26 -3.3 17 -8.3 69 69 NE 7 11 30.42 1030 10 16.0934 N/A
10:53 pm 22:53 Mostly Clear 27 -2.8 16 -8.9 63 63 NNE 3 6 30.41 1030 10 16.0934 N/A
11:53 pm 23:53 Clear 26 -3.3 16 -8.9 66 66 NE 6 9 30.37 1028 10 16.0934 N/A

Powered by AerisWeather